Simultaneous Nadir Overpasses (SNOs) Predictions

Prediction of SNOs between GOES-14 and AQUA Satellite Orbit:

Table of predicted SNOs for the next 14.0 days since TLE Epoch: 11/16/2018
Index Date Time (GOES-14) GOES-14 Lat,Lon AQUA Lat,Lon Distance(km) Time Diff (sec)
1 11/16/2018 20:32:37 -0.08,-104.02 -0.09,-103.93 9.60 80
2 11/18/2018 20:20:26 -0.08,-104.02 0.54,-100.98 345.71 80
3 11/19/2018 08:41:43 0.06,-104.17 0.49,-106.15 225.32 80
4 11/21/2018 08:26:52 0.07,-104.17 -0.13,-103.19 110.62 80
5 11/21/2018 20:48:15 -0.04,-104.00 -0.96,-108.38 497.80 80
6 11/23/2018 08:14:41 0.07,-104.16 -0.77,-100.24 446.34 80
7 11/23/2018 20:36:03 -0.05,-104.00 -0.38,-105.42 161.67 80
8 11/25/2018 20:26:32 -0.06,-104.00 0.26,-102.46 173.94 80
9 11/26/2018 08:47:49 0.03,-104.17 0.79,-107.63 394.07 80
10 11/28/2018 08:35:38 0.04,-104.16 0.15,-104.68 59.01 80
11 11/30/2018 08:20:47 0.04,-104.15 -0.50,-101.73 276.22 80




NCC Satellite Simultaneous Nadir Overpasses (SNOs) Prediction Service
